Regional Weather Roundup
Issued by NWS

Home | Current Version | Previous Version | Graphics & Text | Print | Product List | Glossary On
Versions: 1 2 3 4 5 6 7 8 9 10 11 12 13 14 15 16 17 18 19 20 21 22 23 24 25 26 27 28 29 30 31 32 33 34 35 36 37 38 39 40 41 42 43 44 45 46 47 48 49 50
000
ASUS43 KOAX 242002
RWRNE

WEATHER ROUNDUP FOR NEBRASKA
NATIONAL WEATHER SERVICE OMAHA NE
300 PM CDT SAT SEP 24 2016

NOTES: SATELLITE DATA IS BEING USED TO AUGMENT CLOUD COVER ABOVE
       12000 FEET.
       "FAIR" INDICATES FEW OR NO CLOUDS BELOW 12,000 FEET WITH NO
       SIGNIFICANT WEATHER AND/OR OBSTRUCTIONS TO VISIBILITY.

  * THESE STATIONS DO NOT REPORT WEATHER SUCH AS RAIN...SNOW OR FOG.

NEZ001>004-019>022-054>056-242100-
NEBRASKA PANHANDLE

CITY           SKY/WX    TMP DP  RH WIND       PRES   REMARKS
SCOTTSBLUFF    PTSUNNY   69  38  32 W15G23    29.96F
ALLIANCE       MOSUNNY   68  40  35 SW14G23   29.95F
CHADRON        MOSUNNY   67  41  38 W18G28    29.91F
KIMBALL        SUNNY     67  34  29 W6G16     30.01F
SIDNEY         SUNNY     70  32  24 SW8G20    29.99F
$$

NEZ057>060-069>072-079>082-242100-
SOUTHWEST NEBRASKA

CITY           SKY/WX    TMP DP  RH WIND       PRES   REMARKS
NORTH PLATTE   SUNNY     80  39  23 NW8       29.93F
IMPERIAL       SUNNY     73  36  25 W7        29.96F
LEXINGTON      SUNNY     75  45  34 NW9       29.91F
MCCOOK         SUNNY     78  41  26 N6        29.92F
OGALLALA       SUNNY     74  36  24 W6        29.95F
$$

NEZ005>010-023>029-035>040-094-242100-
NORTH CENTRAL NEBRASKA

CITY           SKY/WX    TMP DP  RH WIND       PRES   REMARKS
VALENTINE      SUNNY     74  37  26 SW21      29.88F
AINSWORTH      SUNNY     74  41  30 SW12G21   29.89F
BROKEN BOW     SUNNY     77  42  28 W10G18    29.90F
O`NEILL        MOSUNNY   76  53  45 W16G22    29.87F
ORD            MOSUNNY   75  53  46 W12       29.87F
THEDFORD       SUNNY     76  39  26 W16       29.92F
$$

NEZ041-046>049-061>064-073>077-083>087-242100-
SOUTH CENTRAL NEBRASKA

CITY           SKY/WX    TMP DP  RH WIND       PRES   REMARKS
GRAND ISLAND   PTSUNNY   70  63  78 SW8       29.90F
AURORA         CLOUDY    72  70  95 SW9       29.89F
HASTINGS       CLOUDY    69  63  81 SW3       29.91F
HEBRON         LGT RAIN  71  68  93 S8        29.89F
HOLDREGE       SUNNY     74  44  33 W3        29.90F
KEARNEY *      PTSUNNY   75  48  38 W7        29.88F
YORK           CLOUDY    73  68  83 S13G18    29.89R
$$

NEZ011>018-030>034-042>045-242100-
NORTHEAST NEBRASKA

CITY           SKY/WX    TMP DP  RH WIND       PRES   REMARKS
NORFOLK        CLOUDY    72  68  87 S9        29.89S
ALBION         CLOUDY    72  65  79 S6        29.89R
BLAIR          PTSUNNY   76  71  85 S10       29.93S
FREMONT        RAIN      74  72  92 S8        29.93S
TEKAMAH        CLOUDY    76  72  87 S10       29.91R
WAYNE          TSTM      69  68  95 SE10G18   29.92S
$$

NEZ050>053-065>068-078-088>093-242100-
SOUTHEAST NEBRASKA

CITY           SKY/WX    TMP DP  RH WIND       PRES   REMARKS
LINCOLN        LGT RAIN  74  69  85 SW7       29.92F
OMAHA EPPLEY   TSTM      74  70  87 SE10      29.93R FOG
BEATRICE       CLOUDY    73  71  94 S5        29.93R
FALLS CITY     CLOUDY    86  70  58 S18G30    29.89F HX  90
NEBRASKA CITY  CLOUDY    72  68  88 W14G21    29.95R
PLATTSMOUTH    TSTM      72  67  84 SW14G21   29.93F
$$

NEZ044-045-051>053-067-242100-
OMAHA AREA

CITY           SKY/WX    TMP DP  RH WIND       PRES   REMARKS
OMAHA EPPLEY   TSTM      74  70  87 SE10      29.93R FOG
BLAIR          PTSUNNY   76  71  85 S10       29.93S
FREMONT        RAIN      74  72  92 S8        29.93S
MILLARD        CLOUDY    77  71  83 S6        29.92S
OFFUTT AFB     TSTM      71  71 100 SW10      29.92R
PLATTSMOUTH    TSTM      72  67  84 SW14G21   29.93F
WAHOO          LGT RAIN  73  71  93 S8        29.92F
$$




USA.gov is the U.S. government's official web portal to all federal, state and local government web resources and services.